Regional Weather Roundup
Issued by NWS Cleveland, OH

Home | Current Version | Previous Version | Graphics & Text | Print | Product List | Glossary On
Versions: 1 2 3 4 5 6 7 8 9 10 11 12 13 14 15 16 17 18 19 20 21 22 23 24 25 26 27 28 29 30 31 32 33 34 35 36 37 38 39 40 41 42 43 44 45 46 47 48 49 50
000
ASUS41 KCLE 261800
RWRCLE
OHIO REGIONAL WEATHER ROUNDUP
NATIONAL WEATHER SERVICE WILMINGTON, OH
200 PM EDT MON JUN 26 2017

NOTE: "FAIR" INDICATES FEW OR NO CLOUDS BELOW 12,000 FEET WITH NO
SIGNIFICANT WEATHER AND/OR OBSTRUCTIONS TO VISIBILITY.

OHZ001>008-015>018-024>027-034-035-043-044-261900-
   NORTHWEST OHIO

CITY           SKY/WX    TMP DP  RH WIND       PRES   REMARKS
DEFIANCE       CLOUDY    65  50  58 NW13      30.07F
FINDLAY        PTSUNNY   69  43  38 W15       30.06F
TOLEDO EXPRESS FAIR      71  45  39 W20G26    30.05F
TOLEDO EXEC    PTSUNNY   71  45  39 W20       30.06S
LIMA           FAIR      69  45  41 W16G24    30.09F
$$

OHZ009>014-019>023-028>033-038-089-261900-
   NORTHEAST OHIO

CITY           SKY/WX    TMP DP  RH WIND       PRES   REMARKS
CLE-HOPKINS    PTSUNNY   71  51  49 W14       30.06F
CLE-LAKEFRONT  FAIR      68  53  58 W18       30.03F
CUY CO. ARPT   NOT AVBL
LORAIN-ELYRIA  PTSUNNY   68  45  43 W9        30.06S
ASHTABULA      PTSUNNY   64  57  78 NW10      30.04F
AKRON-CANTON   PTSUNNY   71  45  39 W16       30.05F
WOOSTER        NOT AVBL
MANSFIELD      FAIR      69  46  43 SW14G24   30.08F
YOUNGSTOWN     LGT RAIN  67  48  50 W14       30.03F
$$

OHZ042-051>053-060>062-070>072-077>081-261900-
  SOUTHWEST OHIO

CITY           SKY/WX    TMP DP  RH WIND       PRES   REMARKS
CINC-COVINGTON PTSUNNY   71  48  43 NW14      30.15F
CINC-LUNKEN    PTSUNNY   70  48  45 W9G22     30.14F
HAMILTON       FAIR      73  51  46 W10G16    30.14F
DAYTON         NOT AVBL
WRIGHT-PAT AFB FAIR      71  44  37 W10       30.11F
DAYTON GENERAL FAIR      71  44  37 NW10G23   30.12F
WILMINGTON     FAIR      68  48  48 W16       30.13F
$$

OHZ036-037-039>041-045>050-054>059-063>069-073>076-082>088-261900-
  CENTRAL AND SOUTHEAST OHIO

CITY           SKY/WX    TMP DP  RH WIND       PRES   REMARKS
COLUMBUS       FAIR      70  49  47 NW13G22   30.10S
OSU AIRPORT    FAIR      69  48  47 W14G24    30.10F
BOLTON FIELD   MOSUNNY   72  48  43 W12G17    30.11F
RICKENBACK AFB NOT AVBL
NEWARK         PTSUNNY   71  46  40 W13       30.10S
MARION         PTSUNNY   67  45  45 NW10G20   30.09F
LANCASTER      CLOUDY    67  50  54 W10G18    30.12S
ZANESVILLE     PTSUNNY   70  50  49 W10       30.09F
NEW PHILLY     CLOUDY    70  49  47 SW9       30.07F
$$




USA.gov is the U.S. government's official web portal to all federal, state and local government web resources and services.